Buffalo, NY

3:31 PM EST on November 13, 2019 (GMT -0500)
Buffalo Niagara International

Weather History for KBUF - September, 2019

Change the Weather History Date:

Wednesday, September 25, 2019

  Actual Average Record
Temperature  
Mean Temperature 66 °F 59 °F  
Max Temperature 77 °F 67 °F 91 °F (2017)
Min Temperature 55 °F 50 °F 36 °F (1887)
Degree Days  
Heating Degree Days 0 7  
Month to date heating degree days 24 95  
Since 1 July heating degree days 27 122  
Cooling Degree Days 1 1  
Month to date cooling degree days 52 50  
Year to date cooling degree days 597 537  
Growing Degree Days 16 (Base 50)    
Moisture  
Dew Point 55 °F    
Average Humidity 70    
Maximum Humidity 93    
Minimum Humidity 47    
Precipitation  
Precipitation T in 0.14 in 1.47 in (2005)
Month to date precipitation 5.44 3.20  
Year to date precipitation 33.81 28.36  
Snow  
Snow 0.00 in 0.00 in 0.00 in ()
Month to date snowfall 0.0 0.0  
Since 1 July snowfall 0.0 0.0  
Since 1 September snowfall 0.0 0.0  
Snow Depth 0.00 in    
Sea Level Pressure  
Sea Level Pressure 29.80 in    
Wind  
Wind Speed 11 mph (SSW)    
Max Wind Speed 23 mph    
Max Gust Speed 30 mph    
Visibility 10 miles    
Events Rain    
T = Trace of Precipitation, MM = Missing Value Source: NWS Daily Summary

Daily Weather History Graph

Daily Weather History Graph

Search for Another Location

Airport or City:

Astronomy

Sep. 25, 2019 Rise Set
Actual Time 7:05 AM EDT 7:07 PM EDT
Civil Twilight 6:36 AM EDT 7:35 PM EDT
Nautical Twilight 6:03 AM EDT 8:08 PM EDT
Astronomical Twilight 5:30 AM EDT 8:42 PM EDT
Moon 2:48 AM EDT (9/25) 5:44 PM EDT (9/25)
Length of Visible Light 12h 58m
Length of Day
12h 02m
Waning Crescent, 14% of the Moon is Illuminated
Sep 25
Waning Crescent
Sep 28
New
Oct 5
First Quarter
Oct 13
Full
Oct 21
Last Quarter

Hourly Weather History & Observations

Time (EDT) Temp. Dew Point Humidity Pressure Visibility Wind Dir Wind Speed Gust Speed Precip Events Conditions
12:54 AM 57.0 °F 54.0 °F 89% 29.84 in 10.0 mi SSE 5.8 mph - N/A   Clear
1:54 AM 55.9 °F 53.1 °F 90% 29.86 in 10.0 mi South 4.6 mph - N/A   Clear
2:54 AM 55.0 °F 52.0 °F 89% 29.88 in 10.0 mi South 4.6 mph - N/A   Clear
3:54 AM 55.9 °F 53.1 °F 90% 29.87 in 10.0 mi SSE 5.8 mph - N/A   Clear
4:54 AM 55.0 °F 53.1 °F 93% 29.87 in 10.0 mi SSE 5.8 mph - N/A   Mostly Cloudy
5:54 AM 55.9 °F 53.1 °F 90% 29.87 in 10.0 mi South 6.9 mph - N/A   Scattered Clouds
6:54 AM 55.9 °F 52.0 °F 87% 29.86 in 10.0 mi South 6.9 mph - N/A   Mostly Cloudy
7:54 AM 57.0 °F 51.1 °F 81% 29.86 in 10.0 mi South 8.1 mph - N/A   Partly Cloudy
8:54 AM 62.1 °F 53.1 °F 72% 29.85 in 10.0 mi SSW 8.1 mph - N/A   Partly Cloudy
9:54 AM 66.0 °F 54.0 °F 65% 29.86 in 10.0 mi SW 12.7 mph - N/A   Scattered Clouds
10:54 AM 70.0 °F 55.0 °F 59% 29.84 in 10.0 mi SW 15.0 mph 21.9 mph N/A   Scattered Clouds
11:54 AM 73.0 °F 57.0 °F 57% 29.83 in 10.0 mi SW 17.3 mph 25.3 mph N/A   Mostly Cloudy
12:54 PM 73.0 °F 55.0 °F 53% 29.80 in 10.0 mi SW 18.4 mph 27.6 mph N/A   Mostly Cloudy
1:54 PM 75.9 °F 55.0 °F 48% 29.77 in 10.0 mi SW 17.3 mph 26.5 mph N/A   Mostly Cloudy
2:54 PM 77.0 °F 55.9 °F 48% 29.76 in 10.0 mi SW 19.6 mph 24.2 mph N/A   Mostly Cloudy
3:54 PM 75.9 °F 55.0 °F 48% 29.75 in 10.0 mi SW 16.1 mph 24.2 mph N/A   Mostly Cloudy
4:54 PM 75.0 °F 55.0 °F 50% 29.74 in 10.0 mi WSW 12.7 mph - N/A   Mostly Cloudy
5:54 PM 73.0 °F 57.0 °F 57% 29.73 in 10.0 mi SW 11.5 mph - N/A   Mostly Cloudy
6:54 PM 71.1 °F 59.0 °F 66% 29.73 in 10.0 mi SSW 9.2 mph - N/A   Mostly Cloudy
7:54 PM 71.1 °F 60.1 °F 68% 29.74 in 10.0 mi SSW 9.2 mph - 0.00 in Rain Light Rain
8:54 PM 72.0 °F 55.0 °F 55% 29.75 in 10.0 mi SSW 11.5 mph - 0.00 in   Mostly Cloudy
9:54 PM 70.0 °F 55.0 °F 59% 29.74 in 10.0 mi SSW 12.7 mph - 0.00 in   Mostly Cloudy
10:54 PM 70.0 °F 54.0 °F 57% 29.74 in 10.0 mi SSW 12.7 mph - N/A   Mostly Cloudy
11:54 PM 69.1 °F 53.1 °F 57% 29.73 in 10.0 mi SSW 10.4 mph - N/A   Mostly Cloudy